Location: Unspecified
(0.0000°N, 0.0000°E)
Time: 12:43:17
(UTC+00:00)

CZ-3C DEB - Pass Details

Date: 23 February 2026
Orbit: 610 x 36841 km, 20.5° (Epoch: 4 October)

Event Time Altitude Azimuth Distance (km) Brightness Sun altitude
Rises 09:21:58 0° 288° (WNW) 8,841 ? 46.3°
Reaches altitude 10° 09:26:12 10° 292° (WNW) 9,058 ? 47.3°
Maximum altitude 11:59:54 65° 327° (NNW) 30,961 ? 79.7°
Drops below altitude 10° 19:47:58 10° 135° (SE) 4,094 ? -23.3°
Enters shadow 19:48:17 - 133° (SE) 4,143 ? -23.4°
